User: anonymous   Login
Location: Theydon Bois
(51.6750°N, 0.1050°E)
Time: 01:25:11
(UTC+01:00)
Language:

ARGOS - Orbit

View from above orbital plane
View from above orbital plane
View from above satellite
View from above satellite

Ground track
Ground track

The orbit data is extracted from the following two-line orbital elements,

1 25634U 99008A   17290.57827744 -.00000007 +00000-0 +16912-4 0  9990
2 25634 098.6054 349.9958 0009658 209.3085 150.7550 14.19320110965359
Epoch (UTC): 17 October 2017 13:52:43
Eccentricity: 0.0009658
inclination: 98.6054°
perigee height: 820 km
apogee height: 834 km
right ascension of ascending node: 349.9958°
argument of perigee: 209.3085°
revolutions per day: 14.19320110
mean anomaly at epoch: 150.7550°
orbit number at epoch: 96535

The dashed part of the orbit path shows where the satellite is in the earth's shadow,  

DLR